Epoch 2022 Jan. 21.0 TT = JDT 2459600.5 T 2021 Aug. 6.38206 TT Rudenko q 0.7964650 (2000.0) P Q n 0.11473441 Peri. 46.08546 +0.60613796 +0.76741557 a 4.1944361 Node 262.39060 -0.77671360 +0.51457344 e 0.8101139 Incl. 12.17103 -0.17120972 +0.38247551 P 8.59 From 180 observations 2021 Apr. 10-Dec. 9, mean residual 0".4.
H = 18.5 G = 0.15